owner,sensor,date,latitude,longitude,vertical_datum,sea_water_practical_salinity,qcFlag 
DISL,ioos:station:DISL:KATA:1,2012-08-01T00:00:00Z,30.2583,-88.2131,3.718,24.55,1111122 
DISL,ioos:station:DISL:KATA:1,2012-08-01T00:30:00Z,30.2583,-88.2131,3.749,24.86,1111122 
DISL,ioos:station:DISL:KATA:1,2012-08-01T01:00:00Z,30.2583,-88.2131,3.777,24.91,1111122 
DISL,ioos:station:DISL:KATA:1,2012-08-01T01:30:00Z,30.2583,-88.2131,3.798,24.95,1111122 
DISL,ioos:station:DISL:KATA:1,2012-08-01T02:00:00Z,30.2583,-88.2131,3.821,24.94,1111122 
DISL,ioos:station:DISL:KATA:1,2012-08-01T02:30:00Z,30.2583,-88.2131,3.833,24.98,1111122 
DISL,ioos:station:DISL:KATA:1,2012-08-01T03:00:00Z,30.2583,-88.2131,3.84,24.97,1111122 
DISL,ioos:station:DISL:KATA:1,2012-08-01T03:30:00Z,30.2583,-88.2131,3.857,25.02,1111122 
DISL,ioos:station:DISL:KATA:1,2012-08-01T04:00:00Z,30.2583,-88.2131,3.86,25.02,1111122 
DISL,ioos:station:DISL:KATA:1,2012-08-01T04:30:00Z,30.2583,-88.2131,3.883,25.01,1111122 
DISL,ioos:station:DISL:KATA:1,2012-08-01T05:00:00Z,30.2583,-88.2131,3.91,24.99,1111122 
DISL,ioos:station:DISL:KATA:1,2012-08-01T05:30:00Z,30.2583,-88.2131,3.951,24.97,1111122 
DISL,ioos:station:DISL:KATA:1,2012-08-01T06:00:00Z,30.2583,-88.2131,3.982,25.17,1111122 
DISL,ioos:station:DISL:KATA:1,2012-08-01T06:30:00Z,30.2583,-88.2131,3.998,25.0,1111122 
DISL,ioos:station:DISL:KATA:1,2012-08-01T07:00:00Z,30.2583,-88.2131,4.002,25.03,1111122 
DISL,ioos:station:DISL:KATA:1,2012-08-01T07:30:00Z,30.2583,-88.2131,4.016,25.05,1111122 
DISL,ioos:station:DISL:KATA:1,2012-08-01T08:00:00Z,30.2583,-88.2131,3.997,25.08,1111122 
DISL,ioos:station:DISL:KATA:1,2012-08-01T08:30:00Z,30.2583,-88.2131,4.005,25.14,1111122 
DISL,ioos:station:DISL:KATA:1,2012-08-01T09:00:00Z,30.2583,-88.2131,4.02,25.11,1111122 
DISL,ioos:station:DISL:KATA:1,2012-08-01T09:30:00Z,30.2583,-88.2131,4.053,25.12,1111122 
DISL,ioos:station:DISL:KATA:1,2012-08-01T10:00:00Z,30.2583,-88.2131,4.098,25.13,1111122 
DISL,ioos:station:DISL:KATA:1,2012-08-01T10:30:00Z,30.2583,-88.2131,4.14,25.11,1111122 
DISL,ioos:station:DISL:KATA:1,2012-08-01T11:00:00Z,30.2583,-88.2131,4.173,25.04,1111122 
DISL,ioos:station:DISL:KATA:1,2012-08-01T11:30:00Z,30.2583,-88.2131,4.198,24.97,1111122 
DISL,ioos:station:DISL:KATA:1,2012-08-01T12:00:00Z,30.2583,-88.2131,4.235,24.93,1111122 
DISL,ioos:station:DISL:KATA:1,2012-08-01T12:30:00Z,30.2583,-88.2131,4.255,25.12,1111122 
DISL,ioos:station:DISL:KATA:1,2012-08-01T13:00:00Z,30.2583,-88.2131,4.29,24.87,1111122 
DISL,ioos:station:DISL:KATA:1,2012-08-01T13:30:00Z,30.2583,-88.2131,4.307,25.16,1111122 
DISL,ioos:station:DISL:KATA:1,2012-08-01T14:00:00Z,30.2583,-88.2131,4.313,24.77,1111122 
DISL,ioos:station:DISL:KATA:1,2012-08-01T14:30:00Z,30.2583,-88.2131,4.328,24.98,1111122 
DISL,ioos:station:DISL:KATA:1,2012-08-01T15:00:00Z,30.2583,-88.2131,4.323,25.12,1111122 
DISL,ioos:station:DISL:KATA:1,2012-08-01T15:30:00Z,30.2583,-88.2131,4.308,25.19,1111122 
DISL,ioos:station:DISL:KATA:1,2012-08-01T16:00:00Z,30.2583,-88.2131,4.27,25.58,1111122 
DISL,ioos:station:DISL:KATA:1,2012-08-01T16:30:00Z,30.2583,-88.2131,4.246,25.52,1111122 
DISL,ioos:station:DISL:KATA:1,2012-08-01T17:00:00Z,30.2583,-88.2131,4.247,25.43,1111122 
DISL,ioos:station:DISL:KATA:1,2012-08-01T17:30:00Z,30.2583,-88.2131,4.256,25.34,1111122 
DISL,ioos:station:DISL:KATA:1,2012-08-01T18:00:00Z,30.2583,-88.2131,4.276,25.17,1111122 
DISL,ioos:station:DISL:KATA:1,2012-08-01T18:30:00Z,30.2583,-88.2131,4.245,25.69,1111122 
DISL,ioos:station:DISL:KATA:1,2012-08-01T19:00:00Z,30.2583,-88.2131,4.21,25.77,1111122 
DISL,ioos:station:DISL:KATA:1,2012-08-01T19:30:00Z,30.2583,-88.2131,4.172,25.67,1111122 
DISL,ioos:station:DISL:KATA:1,2012-08-01T20:00:00Z,30.2583,-88.2131,4.12,25.71,1111122 
DISL,ioos:station:DISL:KATA:1,2012-08-01T20:30:00Z,30.2583,-88.2131,4.059,25.71,1111122 
DISL,ioos:station:DISL:KATA:1,2012-08-01T21:00:00Z,30.2583,-88.2131,4.003,25.81,1111122 
DISL,ioos:station:DISL:KATA:1,2012-08-01T21:30:00Z,30.2583,-88.2131,3.955,25.56,1111122 
DISL,ioos:station:DISL:KATA:1,2012-08-01T22:00:00Z,30.2583,-88.2131,3.911,25.36,1111122 
DISL,ioos:station:DISL:KATA:1,2012-08-01T22:30:00Z,30.2583,-88.2131,3.877,25.53,1111122 
DISL,ioos:station:DISL:KATA:1,2012-08-01T23:00:00Z,30.2583,-88.2131,3.833,25.52,1111122 
DISL,ioos:station:DISL:KATA:1,2012-08-01T23:30:00Z,30.2583,-88.2131,3.828,25.44,1111122 
DISL,ioos:station:DISL:KATA:1,2012-08-02T00:00:00Z,30.2583,-88.2131,3.781,25.34,1111122 
DISL,ioos:station:DISL:KATA:1,2012-08-02T00:30:00Z,30.2583,-88.2131,3.742,25.21,1111122 
DISL,ioos:station:DISL:KATA:1,2012-08-02T01:00:00Z,30.2583,-88.2131,3.727,25.12,1111122 
DISL,ioos:station:DISL:KATA:1,2012-08-02T01:30:00Z,30.2583,-88.2131,3.713,25.04,1111122 
DISL,ioos:station:DISL:KATA:1,2012-08-02T02:00:00Z,30.2583,-88.2131,3.725,24.97,1111122 
DISL,ioos:station:DISL:KATA:1,2012-08-02T02:30:00Z,30.2583,-88.2131,3.727,24.99,1111122 
DISL,ioos:station:DISL:KATA:1,2012-08-02T03:00:00Z,30.2583,-88.2131,3.737,25.03,1111122 
DISL,ioos:station:DISL:KATA:1,2012-08-02T03:30:00Z,30.2583,-88.2131,3.759,25.06,1111122 
DISL,ioos:station:DISL:KATA:1,2012-08-02T04:00:00Z,30.2583,-88.2131,3.773,25.11,1111122 
DISL,ioos:station:DISL:KATA:1,2012-08-02T04:30:00Z,30.2583,-88.2131,3.805,25.1,1111122 
DISL,ioos:station:DISL:KATA:1,2012-08-02T05:00:00Z,30.2583,-88.2131,3.841,24.96,1111122 
DISL,ioos:station:DISL:KATA:1,2012-08-02T05:30:00Z,30.2583,-88.2131,3.884,25.17,1111122 
DISL,ioos:station:DISL:KATA:1,2012-08-02T06:00:00Z,30.2583,-88.2131,3.914,25.09,1111122 
DISL,ioos:station:DISL:KATA:1,2012-08-02T06:30:00Z,30.2583,-88.2131,3.936,25.14,1111122 
DISL,ioos:station:DISL:KATA:1,2012-08-02T07:00:00Z,30.2583,-88.2131,3.955,25.14,1111122 
DISL,ioos:station:DISL:KATA:1,2012-08-02T07:30:00Z,30.2583,-88.2131,3.962,25.16,1111122 
DISL,ioos:station:DISL:KATA:1,2012-08-02T08:00:00Z,30.2583,-88.2131,3.975,25.3,1111122 
DISL,ioos:station:DISL:KATA:1,2012-08-02T08:30:00Z,30.2583,-88.2131,3.98,25.37,1111122 
DISL,ioos:station:DISL:KATA:1,2012-08-02T09:00:00Z,30.2583,-88.2131,3.989,25.39,1111122 
DISL,ioos:station:DISL:KATA:1,2012-08-02T09:30:00Z,30.2583,-88.2131,3.993,25.39,1111122 
DISL,ioos:station:DISL:KATA:1,2012-08-02T10:00:00Z,30.2583,-88.2131,4.004,25.54,1111122 
DISL,ioos:station:DISL:KATA:1,2012-08-02T10:30:00Z,30.2583,-88.2131,4.027,25.36,1111122 
DISL,ioos:station:DISL:KATA:1,2012-08-02T11:00:00Z,30.2583,-88.2131,4.056,25.25,1111122 
DISL,ioos:station:DISL:KATA:1,2012-08-02T11:30:00Z,30.2583,-88.2131,4.099,25.05,1111122 
DISL,ioos:station:DISL:KATA:1,2012-08-02T12:00:00Z,30.2583,-88.2131,4.134,25.26,1111122 
DISL,ioos:station:DISL:KATA:1,2012-08-02T12:30:00Z,30.2583,-88.2131,4.168,25.27,1111122 
DISL,ioos:station:DISL:KATA:1,2012-08-02T13:00:00Z,30.2583,-88.2131,4.208,25.4,1111122 
DISL,ioos:station:DISL:KATA:1,2012-08-02T13:30:00Z,30.2583,-88.2131,4.22,25.93,1111122 
DISL,ioos:station:DISL:KATA:1,2012-08-02T14:00:00Z,30.2583,-88.2131,4.238,26.02,1111122 
DISL,ioos:station:DISL:KATA:1,2012-08-02T14:30:00Z,30.2583,-88.2131,4.257,26.17,1111122 
DISL,ioos:station:DISL:KATA:1,2012-08-02T15:00:00Z,30.2583,-88.2131,4.267,26.3,1111122 
DISL,ioos:station:DISL:KATA:1,2012-08-02T15:30:00Z,30.2583,-88.2131,4.271,26.25,1111122 
DISL,ioos:station:DISL:KATA:1,2012-08-02T16:00:00Z,30.2583,-88.2131,4.253,26.4,1111122 
DISL,ioos:station:DISL:KATA:1,2012-08-02T16:30:00Z,30.2583,-88.2131,4.232,26.39,1111122 
DISL,ioos:station:DISL:KATA:1,2012-08-02T17:00:00Z,30.2583,-88.2131,4.214,26.49,1111122 
DISL,ioos:station:DISL:KATA:1,2012-08-02T17:30:00Z,30.2583,-88.2131,4.203,26.54,1111122 
DISL,ioos:station:DISL:KATA:1,2012-08-02T18:00:00Z,30.2583,-88.2131,4.202,26.59,1111122 
DISL,ioos:station:DISL:KATA:1,2012-08-02T18:30:00Z,30.2583,-88.2131,4.198,26.62,1111122 
DISL,ioos:station:DISL:KATA:1,2012-08-02T19:00:00Z,30.2583,-88.2131,4.172,26.58,1111122 
DISL,ioos:station:DISL:KATA:1,2012-08-02T19:30:00Z,30.2583,-88.2131,4.149,26.54,1111122 
DISL,ioos:station:DISL:KATA:1,2012-08-02T20:00:00Z,30.2583,-88.2131,4.114,26.48,1111122 
DISL,ioos:station:DISL:KATA:1,2012-08-02T20:30:00Z,30.2583,-88.2131,4.093,25.31,1111122 
DISL,ioos:station:DISL:KATA:1,2012-08-02T21:00:00Z,30.2583,-88.2131,4.016,26.21,1111122 
DISL,ioos:station:DISL:KATA:1,2012-08-02T21:30:00Z,30.2583,-88.2131,3.946,26.09,1111122 
DISL,ioos:station:DISL:KATA:1,2012-08-02T22:00:00Z,30.2583,-88.2131,3.917,25.97,1111122 
DISL,ioos:station:DISL:KATA:1,2012-08-02T22:30:00Z,30.2583,-88.2131,3.901,25.94,1111122 
DISL,ioos:station:DISL:KATA:1,2012-08-02T23:00:00Z,30.2583,-88.2131,3.838,25.72,1111122 
DISL,ioos:station:DISL:KATA:1,2012-08-02T23:30:00Z,30.2583,-88.2131,3.763,25.58,1111122 
DISL,ioos:station:DISL:KATA:1,2012-08-03T00:00:00Z,30.2583,-88.2131,3.746,25.38,1111122 
DISL,ioos:station:DISL:KATA:1,2012-08-03T00:30:00Z,30.2583,-88.2131,3.758,25.46,1111122 
DISL,ioos:station:DISL:KATA:1,2012-08-03T01:00:00Z,30.2583,-88.2131,3.765,25.29,1111122 
DISL,ioos:station:DISL:KATA:1,2012-08-03T01:30:00Z,30.2583,-88.2131,3.817,25.25,1111122 
DISL,ioos:station:DISL:KATA:1,2012-08-03T02:00:00Z,30.2583,-88.2131,3.822,25.24,1111122 
DISL,ioos:station:DISL:KATA:1,2012-08-03T02:30:00Z,30.2583,-88.2131,3.839,25.28,1111122 
DISL,ioos:station:DISL:KATA:1,2012-08-03T03:00:00Z,30.2583,-88.2131,3.852,25.3,1111122 
DISL,ioos:station:DISL:KATA:1,2012-08-03T03:30:00Z,30.2583,-88.2131,3.853,25.32,1111122 
DISL,ioos:station:DISL:KATA:1,2012-08-03T04:00:00Z,30.2583,-88.2131,3.862,25.34,1111122 
DISL,ioos:station:DISL:KATA:1,2012-08-03T04:30:00Z,30.2583,-88.2131,3.851,25.38,1111122 
DISL,ioos:station:DISL:KATA:1,2012-08-03T05:00:00Z,30.2583,-88.2131,3.866,25.33,1111122 
DISL,ioos:station:DISL:KATA:1,2012-08-03T05:30:00Z,30.2583,-88.2131,3.889,25.39,1111122 
DISL,ioos:station:DISL:KATA:1,2012-08-03T06:00:00Z,30.2583,-88.2131,3.906,25.4,1111122 
DISL,ioos:station:DISL:KATA:1,2012-08-03T06:30:00Z,30.2583,-88.2131,3.925,25.42,1111122 
DISL,ioos:station:DISL:KATA:1,2012-08-03T07:00:00Z,30.2583,-88.2131,3.954,25.55,1111122 
DISL,ioos:station:DISL:KATA:1,2012-08-03T07:30:00Z,30.2583,-88.2131,3.988,25.75,1111122 
DISL,ioos:station:DISL:KATA:1,2012-08-03T08:00:00Z,30.2583,-88.2131,4.011,25.68,1111122 
DISL,ioos:station:DISL:KATA:1,2012-08-03T08:30:00Z,30.2583,-88.2131,4.031,25.65,1111122 
DISL,ioos:station:DISL:KATA:1,2012-08-03T09:00:00Z,30.2583,-88.2131,4.042,25.7,1111122 
DISL,ioos:station:DISL:KATA:1,2012-08-03T09:30:00Z,30.2583,-88.2131,4.031,25.61,1111122 
DISL,ioos:station:DISL:KATA:1,2012-08-03T10:00:00Z,30.2583,-88.2131,4.045,25.62,1111122 
DISL,ioos:station:DISL:KATA:1,2012-08-03T10:30:00Z,30.2583,-88.2131,4.041,25.82,1111122 
DISL,ioos:station:DISL:KATA:1,2012-08-03T11:00:00Z,30.2583,-88.2131,4.053,25.78,1111122 
DISL,ioos:station:DISL:KATA:1,2012-08-03T11:30:00Z,30.2583,-88.2131,4.069,25.7,1111122 
DISL,ioos:station:DISL:KATA:1,2012-08-03T12:00:00Z,30.2583,-88.2131,4.092,26.02,1111122 
DISL,ioos:station:DISL:KATA:1,2012-08-03T12:30:00Z,30.2583,-88.2131,4.139,26.08,1111122 
DISL,ioos:station:DISL:KATA:1,2012-08-03T13:00:00Z,30.2583,-88.2131,4.15,26.09,1111122 
DISL,ioos:station:DISL:KATA:1,2012-08-03T13:30:00Z,30.2583,-88.2131,4.148,26.08,1111122 
DISL,ioos:station:DISL:KATA:1,2012-08-03T14:00:00Z,30.2583,-88.2131,4.162,26.2,1111122 
DISL,ioos:station:DISL:KATA:1,2012-08-03T14:30:00Z,30.2583,-88.2131,4.181,26.24,1111122 
DISL,ioos:station:DISL:KATA:1,2012-08-03T15:00:00Z,30.2583,-88.2131,4.221,26.23,1111122 
DISL,ioos:station:DISL:KATA:1,2012-08-03T15:30:00Z,30.2583,-88.2131,4.231,26.29,1111122 
DISL,ioos:station:DISL:KATA:1,2012-08-03T16:00:00Z,30.2583,-88.2131,4.223,26.3,1111122 
DISL,ioos:station:DISL:KATA:1,2012-08-03T16:30:00Z,30.2583,-88.2131,4.225,26.4,1111122 
DISL,ioos:station:DISL:KATA:1,2012-08-03T17:00:00Z,30.2583,-88.2131,4.195,26.41,1111122 
DISL,ioos:station:DISL:KATA:1,2012-08-03T17:30:00Z,30.2583,-88.2131,4.178,26.45,1111122 
DISL,ioos:station:DISL:KATA:1,2012-08-03T18:00:00Z,30.2583,-88.2131,4.165,26.4,1111122 
DISL,ioos:station:DISL:KATA:1,2012-08-03T18:30:00Z,30.2583,-88.2131,4.178,26.44,1111122 
DISL,ioos:station:DISL:KATA:1,2012-08-03T19:00:00Z,30.2583,-88.2131,4.165,26.46,1111122 
DISL,ioos:station:DISL:KATA:1,2012-08-03T19:30:00Z,30.2583,-88.2131,4.163,26.48,1111122 
DISL,ioos:station:DISL:KATA:1,2012-08-03T20:00:00Z,30.2583,-88.2131,4.137,26.46,1111122 
DISL,ioos:station:DISL:KATA:1,2012-08-03T20:30:00Z,30.2583,-88.2131,4.087,26.38,1111122 
DISL,ioos:station:DISL:KATA:1,2012-08-03T21:00:00Z,30.2583,-88.2131,4.051,26.39,1111122 
DISL,ioos:station:DISL:KATA:1,2012-08-03T21:30:00Z,30.2583,-88.2131,4.008,26.35,1111122 
DISL,ioos:station:DISL:KATA:1,2012-08-03T22:00:00Z,30.2583,-88.2131,3.966,26.34,1111122 
DISL,ioos:station:DISL:KATA:1,2012-08-03T22:30:00Z,30.2583,-88.2131,3.936,26.29,1111122 
DISL,ioos:station:DISL:KATA:1,2012-08-03T23:00:00Z,30.2583,-88.2131,3.917,26.2,1111122 
DISL,ioos:station:DISL:KATA:1,2012-08-03T23:30:00Z,30.2583,-88.2131,3.907,26.11,1111122 
DISL,ioos:station:DISL:KATA:1,2012-08-04T00:00:00Z,30.2583,-88.2131,3.9,26.0,1111122 
DISL,ioos:station:DISL:KATA:1,2012-08-04T00:30:00Z,30.2583,-88.2131,3.883,25.76,1111122 
DISL,ioos:station:DISL:KATA:1,2012-08-04T01:00:00Z,30.2583,-88.2131,3.897,25.67,1111122 
DISL,ioos:station:DISL:KATA:1,2012-08-04T01:30:00Z,30.2583,-88.2131,3.883,25.58,1111122 
DISL,ioos:station:DISL:KATA:1,2012-08-04T02:00:00Z,30.2583,-88.2131,3.86,25.47,1111122 
DISL,ioos:station:DISL:KATA:1,2012-08-04T02:30:00Z,30.2583,-88.2131,3.844,25.43,1111122 
DISL,ioos:station:DISL:KATA:1,2012-08-04T03:00:00Z,30.2583,-88.2131,3.848,25.44,1111122 
DISL,ioos:station:DISL:KATA:1,2012-08-04T03:30:00Z,30.2583,-88.2131,3.879,25.4,1111122 
DISL,ioos:station:DISL:KATA:1,2012-08-04T04:00:00Z,30.2583,-88.2131,3.89,25.38,1111122 
DISL,ioos:station:DISL:KATA:1,2012-08-04T04:30:00Z,30.2583,-88.2131,3.913,25.36,1111122 
DISL,ioos:station:DISL:KATA:1,2012-08-04T05:00:00Z,30.2583,-88.2131,3.946,25.5,1111122 
DISL,ioos:station:DISL:KATA:1,2012-08-04T05:30:00Z,30.2583,-88.2131,3.953,25.59,1111122 
DISL,ioos:station:DISL:KATA:1,2012-08-04T06:00:00Z,30.2583,-88.2131,3.981,25.62,1111122 
DISL,ioos:station:DISL:KATA:1,2012-08-04T06:30:00Z,30.2583,-88.2131,4.002,25.6,1111122 
DISL,ioos:station:DISL:KATA:1,2012-08-04T07:00:00Z,30.2583,-88.2131,4.013,25.64,1111122 
DISL,ioos:station:DISL:KATA:1,2012-08-04T07:30:00Z,30.2583,-88.2131,4.028,25.58,1111122 
DISL,ioos:station:DISL:KATA:1,2012-08-04T08:00:00Z,30.2583,-88.2131,4.047,25.62,1111122 
DISL,ioos:station:DISL:KATA:1,2012-08-04T08:30:00Z,30.2583,-88.2131,4.063,25.69,1111122 
DISL,ioos:station:DISL:KATA:1,2012-08-04T09:00:00Z,30.2583,-88.2131,4.072,25.54,1111122 
DISL,ioos:station:DISL:KATA:1,2012-08-04T09:30:00Z,30.2583,-88.2131,4.08,25.83,1111122 
DISL,ioos:station:DISL:KATA:1,2012-08-04T10:00:00Z,30.2583,-88.2131,4.079,25.92,1111122 
DISL,ioos:station:DISL:KATA:1,2012-08-04T10:30:00Z,30.2583,-88.2131,4.063,25.95,1111122 
DISL,ioos:station:DISL:KATA:1,2012-08-04T11:00:00Z,30.2583,-88.2131,4.048,26.05,1111122 
DISL,ioos:station:DISL:KATA:1,2012-08-04T11:30:00Z,30.2583,-88.2131,4.057,26.23,1111122 
DISL,ioos:station:DISL:KATA:1,2012-08-04T12:00:00Z,30.2583,-88.2131,4.06,26.36,1111122 
DISL,ioos:station:DISL:KATA:1,2012-08-04T12:30:00Z,30.2583,-88.2131,4.048,26.3,1111122 
DISL,ioos:station:DISL:KATA:1,2012-08-04T13:00:00Z,30.2583,-88.2131,4.048,26.3,1111122 
DISL,ioos:station:DISL:KATA:1,2012-08-04T13:30:00Z,30.2583,-88.2131,4.048,26.3,1111122 
DISL,ioos:station:DISL:KATA:1,2012-08-04T14:00:00Z,30.2583,-88.2131,4.048,26.3,1111122 
DISL,ioos:station:DISL:KATA:1,2012-08-04T14:30:00Z,30.2583,-88.2131,4.048,26.3,1111122 
DISL,ioos:station:DISL:KATA:1,2012-08-04T15:00:00Z,30.2583,-88.2131,4.048,26.3,1111122 
DISL,ioos:station:DISL:KATA:1,2012-08-04T15:30:00Z,30.2583,-88.2131,4.048,26.3,1111122 
DISL,ioos:station:DISL:KATA:1,2012-08-04T16:00:00Z,30.2583,-88.2131,4.048,26.3,1111122 
DISL,ioos:station:DISL:KATA:1,2012-08-04T16:30:00Z,30.2583,-88.2131,4.048,26.3,1111122 
DISL,ioos:station:DISL:KATA:1,2012-08-04T17:00:00Z,30.2583,-88.2131,4.048,26.3,1111122 
DISL,ioos:station:DISL:KATA:1,2012-08-04T17:30:00Z,30.2583,-88.2131,4.048,26.3,1111122 
DISL,ioos:station:DISL:KATA:1,2012-08-04T18:00:00Z,30.2583,-88.2131,4.048,26.3,1111122 
DISL,ioos:station:DISL:KATA:1,2012-08-04T18:30:00Z,30.2583,-88.2131,4.048,26.3,1111122 
DISL,ioos:station:DISL:KATA:1,2012-08-04T19:00:00Z,30.2583,-88.2131,4.048,26.3,1111122 
DISL,ioos:station:DISL:KATA:1,2012-08-04T19:30:00Z,30.2583,-88.2131,4.048,26.3,1111122 
DISL,ioos:station:DISL:KATA:1,2012-08-04T20:00:00Z,30.2583,-88.2131,4.048,26.3,1111122 
DISL,ioos:station:DISL:KATA:1,2012-08-04T20:30:00Z,30.2583,-88.2131,4.048,26.3,1111122 
DISL,ioos:station:DISL:KATA:1,2012-08-04T21:00:00Z,30.2583,-88.2131,4.048,26.3,1111122 
DISL,ioos:station:DISL:KATA:1,2012-08-04T21:30:00Z,30.2583,-88.2131,4.048,26.3,1111122 
DISL,ioos:station:DISL:KATA:1,2012-08-04T22:00:00Z,30.2583,-88.2131,4.048,26.3,1111122 
DISL,ioos:station:DISL:KATA:1,2012-08-04T22:30:00Z,30.2583,-88.2131,4.048,26.3,1111122 
DISL,ioos:station:DISL:KATA:1,2012-08-04T23:00:00Z,30.2583,-88.2131,4.048,26.3,1111122 
DISL,ioos:station:DISL:KATA:1,2012-08-04T23:30:00Z,30.2583,-88.2131,4.048,26.3,1111122 
DISL,ioos:station:DISL:KATA:1,2012-08-05T00:00:00Z,30.2583,-88.2131,4.048,26.3,1111122 
DISL,ioos:station:DISL:KATA:1,2012-08-05T00:30:00Z,30.2583,-88.2131,4.048,26.3,1111122 
DISL,ioos:station:DISL:KATA:1,2012-08-05T01:00:00Z,30.2583,-88.2131,4.048,26.3,1111122 
DISL,ioos:station:DISL:KATA:1,2012-08-05T01:30:00Z,30.2583,-88.2131,4.048,26.3,1111122 
DISL,ioos:station:DISL:KATA:1,2012-08-05T02:00:00Z,30.2583,-88.2131,4.048,26.3,1111122 
DISL,ioos:station:DISL:KATA:1,2012-08-05T02:30:00Z,30.2583,-88.2131,4.048,26.3,1111122 
DISL,ioos:station:DISL:KATA:1,2012-08-05T03:00:00Z,30.2583,-88.2131,4.048,26.3,1111122 
DISL,ioos:station:DISL:KATA:1,2012-08-05T03:30:00Z,30.2583,-88.2131,4.048,26.3,1111122 
DISL,ioos:station:DISL:KATA:1,2012-08-05T04:00:00Z,30.2583,-88.2131,4.048,26.3,1111122 
DISL,ioos:station:DISL:KATA:1,2012-08-05T04:30:00Z,30.2583,-88.2131,4.048,26.3,1111122 
DISL,ioos:station:DISL:KATA:1,2012-08-05T05:00:00Z,30.2583,-88.2131,4.048,26.3,1111122 
DISL,ioos:station:DISL:KATA:1,2012-08-05T05:30:00Z,30.2583,-88.2131,4.048,26.3,1111122 
DISL,ioos:station:DISL:KATA:1,2012-08-05T06:00:00Z,30.2583,-88.2131,4.048,26.3,1111122 
DISL,ioos:station:DISL:KATA:1,2012-08-05T06:30:00Z,30.2583,-88.2131,4.048,26.3,1111122 
DISL,ioos:station:DISL:KATA:1,2012-08-05T07:00:00Z,30.2583,-88.2131,4.048,26.3,1111122 
DISL,ioos:station:DISL:KATA:1,2012-08-05T07:30:00Z,30.2583,-88.2131,4.048,26.3,1111122 
DISL,ioos:station:DISL:KATA:1,2012-08-05T08:00:00Z,30.2583,-88.2131,4.048,26.3,1111122 
DISL,ioos:station:DISL:KATA:1,2012-08-05T08:30:00Z,30.2583,-88.2131,4.048,26.3,1111122 
DISL,ioos:station:DISL:KATA:1,2012-08-05T09:00:00Z,30.2583,-88.2131,4.048,26.3,1111122 
DISL,ioos:station:DISL:KATA:1,2012-08-05T09:30:00Z,30.2583,-88.2131,4.048,26.3,1111122 
DISL,ioos:station:DISL:KATA:1,2012-08-05T10:00:00Z,30.2583,-88.2131,4.048,26.3,1111122 
DISL,ioos:station:DISL:KATA:1,2012-08-05T10:30:00Z,30.2583,-88.2131,4.048,26.3,1111122 
DISL,ioos:station:DISL:KATA:1,2012-08-05T11:00:00Z,30.2583,-88.2131,4.048,26.3,1111122 
DISL,ioos:station:DISL:KATA:1,2012-08-05T11:30:00Z,30.2583,-88.2131,4.048,26.3,1111122 
DISL,ioos:station:DISL:KATA:1,2012-08-05T12:00:00Z,30.2583,-88.2131,4.048,26.3,1111122 
DISL,ioos:station:DISL:KATA:1,2012-08-05T12:30:00Z,30.2583,-88.2131,4.048,26.3,1111122 
DISL,ioos:station:DISL:KATA:1,2012-08-05T13:00:00Z,30.2583,-88.2131,4.048,26.3,1111122 
DISL,ioos:station:DISL:KATA:1,2012-08-05T13:30:00Z,30.2583,-88.2131,4.048,26.3,1111122 
DISL,ioos:station:DISL:KATA:1,2012-08-05T14:00:00Z,30.2583,-88.2131,4.048,26.3,1111122 
DISL,ioos:station:DISL:KATA:1,2012-08-05T14:30:00Z,30.2583,-88.2131,4.048,26.3,1111122 
DISL,ioos:station:DISL:KATA:1,2012-08-05T15:00:00Z,30.2583,-88.2131,4.048,26.3,1111122 
DISL,ioos:station:DISL:KATA:1,2012-08-05T15:30:00Z,30.2583,-88.2131,4.048,26.3,1111122 
DISL,ioos:station:DISL:KATA:1,2012-08-05T16:00:00Z,30.2583,-88.2131,4.048,26.3,1111122 
DISL,ioos:station:DISL:KATA:1,2012-08-05T16:30:00Z,30.2583,-88.2131,4.048,26.3,1111122 
DISL,ioos:station:DISL:KATA:1,2012-08-05T17:00:00Z,30.2583,-88.2131,4.048,26.3,1111122 
DISL,ioos:station:DISL:KATA:1,2012-08-05T17:30:00Z,30.2583,-88.2131,4.048,26.3,1111122 
DISL,ioos:station:DISL:KATA:1,2012-08-05T18:00:00Z,30.2583,-88.2131,4.048,26.3,1111122 
DISL,ioos:station:DISL:KATA:1,2012-08-05T18:30:00Z,30.2583,-88.2131,4.048,26.3,1111122 
DISL,ioos:station:DISL:KATA:1,2012-08-05T19:00:00Z,30.2583,-88.2131,4.048,26.3,1111122 
DISL,ioos:station:DISL:KATA:1,2012-08-05T19:30:00Z,30.2583,-88.2131,4.048,26.3,1111122 
DISL,ioos:station:DISL:KATA:1,2012-08-05T20:00:00Z,30.2583,-88.2131,4.048,26.3,1111122 
DISL,ioos:station:DISL:KATA:1,2012-08-05T20:30:00Z,30.2583,-88.2131,4.048,26.3,1111122 
DISL,ioos:station:DISL:KATA:1,2012-08-05T21:00:00Z,30.2583,-88.2131,4.048,26.3,1111122 
DISL,ioos:station:DISL:KATA:1,2012-08-05T21:30:00Z,30.2583,-88.2131,4.048,26.3,1111122 
DISL,ioos:station:DISL:KATA:1,2012-08-05T22:00:00Z,30.2583,-88.2131,4.048,26.3,1111122 
DISL,ioos:station:DISL:KATA:1,2012-08-05T22:30:00Z,30.2583,-88.2131,4.048,26.3,1111122 
DISL,ioos:station:DISL:KATA:1,2012-08-05T23:00:00Z,30.2583,-88.2131,4.048,26.3,1111122 
DISL,ioos:station:DISL:KATA:1,2012-08-05T23:30:00Z,30.2583,-88.2131,4.048,26.3,1111122 
DISL,ioos:station:DISL:KATA:1,2012-08-06T00:00:00Z,30.2583,-88.2131,4.048,26.3,1111122 
DISL,ioos:station:DISL:KATA:1,2012-08-06T00:30:00Z,30.2583,-88.2131,4.048,26.3,1111122 
DISL,ioos:station:DISL:KATA:1,2012-08-06T01:00:00Z,30.2583,-88.2131,4.048,26.3,1111122 
DISL,ioos:station:DISL:KATA:1,2012-08-06T01:30:00Z,30.2583,-88.2131,4.048,26.3,1111122 
DISL,ioos:station:DISL:KATA:1,2012-08-06T02:00:00Z,30.2583,-88.2131,4.048,26.3,1111122 
DISL,ioos:station:DISL:KATA:1,2012-08-06T02:30:00Z,30.2583,-88.2131,4.048,26.3,1111122 
DISL,ioos:station:DISL:KATA:1,2012-08-06T03:00:00Z,30.2583,-88.2131,4.048,26.3,1111122 
DISL,ioos:station:DISL:KATA:1,2012-08-06T03:30:00Z,30.2583,-88.2131,4.048,26.3,1111122 
DISL,ioos:station:DISL:KATA:1,2012-08-06T04:00:00Z,30.2583,-88.2131,4.048,26.3,1111122 
DISL,ioos:station:DISL:KATA:1,2012-08-06T04:30:00Z,30.2583,-88.2131,4.048,26.3,1111122 
DISL,ioos:station:DISL:KATA:1,2012-08-06T05:00:00Z,30.2583,-88.2131,4.048,26.3,1111122 
DISL,ioos:station:DISL:KATA:1,2012-08-06T05:30:00Z,30.2583,-88.2131,4.048,26.3,1111122 
DISL,ioos:station:DISL:KATA:1,2012-08-06T06:00:00Z,30.2583,-88.2131,4.048,26.3,1111122 
DISL,ioos:station:DISL:KATA:1,2012-08-06T06:30:00Z,30.2583,-88.2131,4.048,26.3,1111122 
DISL,ioos:station:DISL:KATA:1,2012-08-06T07:00:00Z,30.2583,-88.2131,4.048,26.3,1111122 
DISL,ioos:station:DISL:KATA:1,2012-08-06T07:30:00Z,30.2583,-88.2131,4.048,26.3,1111122 
DISL,ioos:station:DISL:KATA:1,2012-08-06T08:00:00Z,30.2583,-88.2131,4.048,26.3,1111122 
DISL,ioos:station:DISL:KATA:1,2012-08-06T08:30:00Z,30.2583,-88.2131,4.048,26.3,1111122 
DISL,ioos:station:DISL:KATA:1,2012-08-06T09:00:00Z,30.2583,-88.2131,4.048,26.3,1111122 
DISL,ioos:station:DISL:KATA:1,2012-08-06T09:30:00Z,30.2583,-88.2131,4.048,26.3,1111122 
DISL,ioos:station:DISL:KATA:1,2012-08-06T10:00:00Z,30.2583,-88.2131,4.048,26.3,1111122 
DISL,ioos:station:DISL:KATA:1,2012-08-06T10:30:00Z,30.2583,-88.2131,4.048,26.3,1111122 
DISL,ioos:station:DISL:KATA:1,2012-08-06T11:00:00Z,30.2583,-88.2131,4.048,26.3,1111122 
DISL,ioos:station:DISL:KATA:1,2012-08-06T11:30:00Z,30.2583,-88.2131,4.048,26.3,1111122 
DISL,ioos:station:DISL:KATA:1,2012-08-06T12:00:00Z,30.2583,-88.2131,4.048,26.3,1111122 
DISL,ioos:station:DISL:KATA:1,2012-08-06T12:30:00Z,30.2583,-88.2131,4.048,26.3,1111122 
DISL,ioos:station:DISL:KATA:1,2012-08-06T13:00:00Z,30.2583,-88.2131,4.048,26.3,1111122 
DISL,ioos:station:DISL:KATA:1,2012-08-06T13:30:00Z,30.2583,-88.2131,4.048,26.3,1111122 
DISL,ioos:station:DISL:KATA:1,2012-08-06T14:00:00Z,30.2583,-88.2131,4.048,26.3,1111122 
DISL,ioos:station:DISL:KATA:1,2012-08-06T14:30:00Z,30.2583,-88.2131,4.048,26.3,1111122 